NIMBUS 2 DEB, 28202

Orbit data source: Space-Track

NIMBUS 2 DEB, 28202 is space debris in SSO originally from a launch on Sun, 15 May 1966 UTC launched from the Air Force Western Test Range (AFWTR). Debris objects in space refer to the collection of defunct objects orbiting the Earth. Examples of debris include non-operational satellites, rocket bodies, and fragments generated from explosions, collisions, or faulty payload assembly.

Loading next visibility...
Identifier
28202, 1966-040Q
Orbit
SSO
Country
Flag of USUS
Related business
Manufacturer
Unknown
Mission
Spacecraft
Bus & Motor
Unknown
Mass
Unknown
Launch date (UTC)
1966-05-15 (59 years ago)
Launch vehicle
Unknown
Launch site
Air Force Western Test Range (AFWTR)
Object type
Payload
Rocket body
Debris
Shape & HBR
Unknown shape, 0.1 m
Radar Cross Section
Small (<0.1 m²)

Expand to show TLE details & history
Last TLE update: 17 hours ago

TLE from 17 hours ago
0 NIMBUS 2 DEB
1 28202U 66040Q   25286.60002956  .00002739  00000-0  35074-2 0  9993
2 28202 100.1574 160.7883 0014795 124.9746 265.3207 13.63836244599183
Epoch: 2025-10-13T14:24Z
TLE epoch observation values (Epoch: 2025-10-13T14:24:02.553Z)
Latitude
29.65634°
Longitude
-83.44743°
Altitude
1,026.281 km
Speed
7.341 km/s
True Right ascension
10h 19m 51s
True Declination
29° 30' 51"
Sunlit
Object was in daylight at epoch
Visualization orbit readout
Latitude
Unknown
Longitude
Unknown
Altitude
Unknown
Speed
Unknown
Apparent Right ascension
Unknown
Apparent Declination
Unknown
Sunlit
N/A
Visualization observer readout
Local Sidereal Time
01:34:37
Azimuth
Unknown
Elevation
Unknown
Doppler factor
Unknown
Orbital elements
Apogee altitude
1,030.034 km
Perigee altitude
1,008.146 km
Semi-major axis
7,397.227 km
Eccentricity
0.00148
Inclination
100.1574°
RAAN
160.7883°
Arg. of periapsis
124.9746°
True anomaly
265.15175°
Mean anomaly
265.3207°
Eccentric anomaly
265.23622°
Mean motion
3.41146 °/min
Orbital period
105.53 mins
BSTAR
0.0035074
Loading maneuver chart data...
Computing Atmospheric mass density...
Loading historical data...
Loading historical data...
Loading historical data...
Loading historical data...
Loading historical data...
Loading historical data...
Loading historical data...

Documentation

Showing up to 5 results
|